Watford City, ND

4:12 PM CST on February 24, 2017 (GMT -0600)
Watford City

Weather History for KS25 - December, 2011

Change the Weather History Date:

Sunday, December 18, 2011

  Actual Average (KISN) Record (KISN)
Temperature  
Mean Temperature 37 °F -  
Max Temperature 46 °F 24 °F 56 °F (1979)
Min Temperature 28 °F 3 °F -36 °F (1929)
Degree Days  
Heating Degree Days 28    
Moisture  
Dew Point 25 °F    
Average Humidity 71    
Maximum Humidity 87    
Minimum Humidity 43    
Precipitation  
Precipitation 0.00 in - - ()
Sea Level Pressure  
Sea Level Pressure 29.76 in    
Wind  
Wind Speed 11 mph (West)    
Max Wind Speed 23 mph    
Max Gust Speed 30 mph    
Visibility 10 miles    
Events      
Averages and records for this station are not official NWS values.
T = Trace of Precipitation, MM = Missing Value Source: NWS Daily Summary

Daily Weather History Graph

Daily Weather History Graph

Search for Another Location

Airport or City:

Trip Planner

Search our weather history database for the weather conditions in past years. The results will help you decide how hot, cold, wet, or windy it might be!

Date:

Astronomy

Dec. 18, 2011 Rise Set
Actual Time 8:37 AM CST 5:01 PM CST
Civil Twilight 8:01 AM CST 5:38 PM CST
Nautical Twilight 7:21 AM CST 6:17 PM CST
Astronomical Twilight 6:43 AM CST 6:55 PM CST
Moon 1:18 AM CST (12/18) 12:48 PM CST (12/18)
Length of Visible Light 9h 36m
Length of Day
8h 24m
Last Quarter, 42% of the Moon is Illuminated
Dec 18
Last Quarter
Dec 24
New
Jan 1
First Quarter
Jan 9
Full
Jan 16
Last Quarter

Hourly Weather History & Observations

Time (CST) Temp. Windchill Dew Point Humidity Pressure Visibility Wind Dir Wind Speed Gust Speed Precip Events Conditions
12:15 AM 32.0 °F 23.6 °F 24.8 °F 75% 29.81 in 10.0 mi WSW 10.4 mph - N/A   Clear
12:35 AM 32.0 °F 23.0 °F 24.8 °F 75% 29.80 in 10.0 mi SW 11.5 mph - N/A   Clear
12:55 AM 32.0 °F 23.6 °F 24.8 °F 75% 29.80 in 10.0 mi WSW 10.4 mph - N/A   Clear
1:15 AM 32.0 °F 24.8 °F 24.8 °F 75% 29.78 in 10.0 mi WSW 8.1 mph - N/A   Clear
1:35 AM 32.0 °F 24.2 °F 24.8 °F 75% 29.77 in 10.0 mi WSW 9.2 mph - N/A   Clear
1:55 AM 32.0 °F 25.6 °F 24.8 °F 75% 29.76 in 10.0 mi WSW 6.9 mph - N/A   Clear
2:15 AM 30.2 °F 22.6 °F 24.8 °F 80% 29.76 in 10.0 mi WSW 8.1 mph - N/A   Clear
2:35 AM 28.4 °F 18.5 °F 24.8 °F 86% 29.75 in 10.0 mi WSW 11.5 mph - N/A   Clear
2:55 AM 32.0 °F 23.6 °F 24.8 °F 75% 29.75 in 10.0 mi WSW 10.4 mph - N/A   Clear
3:15 AM 32.0 °F 23.0 °F 24.8 °F 75% 29.75 in 10.0 mi SW 11.5 mph - N/A   Clear
3:35 AM 32.0 °F 27.5 °F 24.8 °F 75% 29.74 in 10.0 mi North 4.6 mph - N/A   Clear
3:55 AM 32.0 °F 24.2 °F 24.8 °F 75% 29.74 in 10.0 mi WSW 9.2 mph - N/A   Clear
4:15 AM 32.0 °F 23.6 °F 24.8 °F 75% 29.73 in 10.0 mi SW 10.4 mph - N/A   Clear
4:35 AM 32.0 °F 24.2 °F 23.0 °F 69% 29.73 in 10.0 mi WSW 9.2 mph - N/A   Clear
4:55 AM 30.2 °F 22.6 °F 23.0 °F 75% 29.72 in 10.0 mi WSW 8.1 mph - N/A   Clear
5:15 AM 32.0 °F 24.8 °F 23.0 °F 69% 29.71 in 10.0 mi WSW 8.1 mph - N/A   Clear
5:35 AM 32.0 °F 24.8 °F 23.0 °F 69% 29.71 in 10.0 mi WSW 8.1 mph - N/A   Clear
5:55 AM 32.0 °F 23.6 °F 23.0 °F 69% 29.70 in 10.0 mi WSW 10.4 mph - N/A   Clear
6:15 AM 32.0 °F 22.1 °F 23.0 °F 69% 29.70 in 10.0 mi SW 13.8 mph - N/A   Clear
6:35 AM 32.0 °F 22.5 °F 23.0 °F 69% 29.69 in 10.0 mi SW 12.7 mph - N/A   Clear
6:55 AM 32.0 °F 23.6 °F 23.0 °F 69% 29.69 in 10.0 mi WSW 10.4 mph - N/A   Clear
7:15 AM 32.0 °F 24.2 °F 23.0 °F 69% 29.68 in 10.0 mi SW 9.2 mph - N/A   Clear
7:35 AM 32.0 °F 22.5 °F 23.0 °F 69% 29.68 in 10.0 mi SW 12.7 mph - N/A   Clear
7:55 AM 32.0 °F 23.6 °F 23.0 °F 69% 29.67 in 10.0 mi SW 10.4 mph - N/A   Clear
8:15 AM 32.0 °F 23.6 °F 23.0 °F 69% 29.67 in 10.0 mi WSW 10.4 mph - N/A   Clear
8:35 AM 32.0 °F 22.5 °F 23.0 °F 69% 29.66 in 10.0 mi SW 12.7 mph - N/A   Clear
8:55 AM 32.0 °F 21.6 °F 23.0 °F 69% 29.66 in 10.0 mi SW 15.0 mph - N/A   Clear
9:15 AM 32.0 °F 22.5 °F 23.0 °F 69% 29.65 in 10.0 mi WSW 12.7 mph - N/A   Clear
9:35 AM 32.0 °F 23.6 °F 23.0 °F 69% 29.65 in 10.0 mi WSW 10.4 mph - N/A   Clear
9:55 AM 35.6 °F 29.2 °F 23.0 °F 60% 29.65 in 10.0 mi WSW 8.1 mph - N/A   Clear
10:15 AM 37.4 °F 29.3 °F 24.8 °F 60% 29.65 in 10.0 mi SW 12.7 mph - N/A   Clear
10:35 AM 39.2 °F 31.2 °F 24.8 °F 56% 29.66 in 10.0 mi WSW 13.8 mph - N/A   Clear
10:55 AM 41.0 °F 33.1 °F 24.8 °F 53% 29.66 in 10.0 mi SW 15.0 mph 19.6 mph N/A   Clear
11:15 AM 41.0 °F 33.1 °F 24.8 °F 53% 29.65 in 10.0 mi SW 15.0 mph 23.0 mph N/A   Clear
11:35 AM 41.0 °F 33.9 °F 26.6 °F 57% 29.65 in 10.0 mi SW 12.7 mph - N/A   Clear
12:15 PM 44.6 °F 38.8 °F 26.6 °F 49% 29.65 in 10.0 mi WSW 11.5 mph - N/A   Clear
12:35 PM 46.4 °F 40.7 °F 24.8 °F 43% 29.65 in 10.0 mi West 12.7 mph 23.0 mph N/A   Clear
1:15 PM 46.4 °F 40.7 °F 26.6 °F 46% 29.66 in 10.0 mi West 12.7 mph 16.1 mph N/A   Clear
1:55 PM 46.4 °F 41.1 °F 26.6 °F 46% 29.67 in 10.0 mi West 11.5 mph 18.4 mph N/A   Clear
2:35 PM 44.6 °F 37.8 °F 28.4 °F 53% 29.68 in 10.0 mi WNW 15.0 mph 21.9 mph N/A   Clear
2:55 PM 44.6 °F 38.1 °F 30.2 °F 57% 29.71 in 10.0 mi NW 13.8 mph 27.6 mph N/A   Clear
3:35 PM 37.4 °F 26.9 °F 32.0 °F 81% 29.76 in 10.0 mi NNW 20.7 mph 29.9 mph N/A   Mostly Cloudy
3:55 PM 35.6 °F 24.0 °F 28.4 °F 75% 29.77 in 10.0 mi North 23.0 mph 29.9 mph N/A   Mostly Cloudy
4:15 PM 33.8 °F 23.5 °F 28.4 °F 81% 29.79 in 10.0 mi North 16.1 mph 24.2 mph N/A   Overcast
4:35 PM 33.8 °F 23.9 °F 28.4 °F 81% 29.81 in 10.0 mi NNW 15.0 mph 20.7 mph N/A   Overcast
4:55 PM 32.0 °F 20.8 °F 28.4 °F 87% 29.83 in 10.0 mi NNW 17.3 mph 24.2 mph N/A   Overcast
5:15 PM 32.0 °F 20.8 °F 28.4 °F 87% 29.84 in 10.0 mi NNW 17.3 mph - N/A   Overcast
5:35 PM 32.0 °F 21.2 °F 28.4 °F 87% 29.87 in 10.0 mi NNW 16.1 mph 21.9 mph N/A   Overcast
5:55 PM 32.0 °F 21.6 °F 28.4 °F 87% 29.89 in 10.0 mi NNW 15.0 mph 18.4 mph N/A   Overcast
6:15 PM 32.0 °F 21.6 °F 28.4 °F 87% 29.90 in 10.0 mi NNW 15.0 mph 20.7 mph N/A   Overcast
6:35 PM 32.0 °F 21.6 °F 28.4 °F 87% 29.92 in 10.0 mi North 15.0 mph 21.9 mph N/A   Overcast
6:55 PM 32.0 °F 23.6 °F 26.6 °F 80% 29.94 in 10.0 mi North 10.4 mph 17.3 mph N/A   Mostly Cloudy
7:15 PM 32.0 °F 21.6 °F 26.6 °F 80% 29.96 in 10.0 mi NNW 15.0 mph 23.0 mph N/A   Scattered Clouds
7:35 PM 30.2 °F 21.3 °F 26.6 °F 86% 29.98 in 10.0 mi NNW 10.4 mph - N/A   Mostly Cloudy
7:55 PM 30.2 °F 22.6 °F 24.8 °F 80% 30.00 in 10.0 mi NNW 8.1 mph - N/A   Overcast
8:15 PM 30.2 °F 22.6 °F 24.8 °F 80% 30.00 in 10.0 mi NNW 8.1 mph - N/A   Overcast
8:35 PM 28.4 °F 23.3 °F 24.8 °F 86% 30.02 in 10.0 mi WSW 4.6 mph - N/A   Overcast
8:55 PM 28.4 °F 23.3 °F 23.0 °F 80% 30.03 in 10.0 mi North 4.6 mph - N/A   Mostly Cloudy
9:15 PM 26.6 °F - 23.0 °F 86% 30.04 in 10.0 mi Calm Calm - N/A   Scattered Clouds
9:35 PM 26.6 °F 22.6 °F 23.0 °F 86% 30.05 in 10.0 mi NW 3.5 mph - N/A   Overcast
9:55 PM 26.6 °F - 23.0 °F 86% 30.06 in 10.0 mi Calm Calm - N/A   Overcast
10:15 PM 26.6 °F 22.6 °F 23.0 °F 86% 30.06 in 10.0 mi West 3.5 mph - N/A   Overcast
10:35 PM 26.6 °F 22.6 °F 24.8 °F 93% 30.07 in 10.0 mi SW 3.5 mph - N/A   Overcast
10:55 PM 26.6 °F - 23.0 °F 86% 30.07 in 10.0 mi Calm Calm - N/A   Overcast
11:15 PM 24.8 °F 17.9 °F 23.0 °F 93% 30.08 in 10.0 mi NW 5.8 mph - N/A   Partly Cloudy
11:35 PM 24.8 °F 20.5 °F 23.0 °F 93% 30.09 in 10.0 mi NNW 3.5 mph - N/A   Partly Cloudy
11:55 PM 24.8 °F 20.5 °F 21.2 °F 86% 30.09 in 10.0 mi NW 3.5 mph - N/A   Clear